[[{"header":{"parameterUnit":"m.s-1","parameterCategory":1,"la1":30.2991,"la2":30.254,"lo1":-89.0895,"lo2":-89.0444,"dy":0.0017,"dx":0.0017,"nx":28,"ny":28,"refTime":"2026-01-05T09:00:00:Z","depth":0,"parameterNumber":2,"parameterNumberName":"U-component_of_WINDS"},"data":[0,0,0,0,0,0,0,0,0,0,0,0,0,0,0,0,0,0,0,0,0,0,0,0,0,0,0,0,0,0,0,0,0,0,0,0,0,0,0,0,0,0,0,0,0,0,0,0,0,0,0,0,0,0,0,0,0,0,-0.601,-0.601,0,-0.6025,-0.6025,-0.6026,-0.598,-0.5979,-0.5978,-0.5976,-0.5995,-0.5996,-0.5998,0,0,0,0,0,0,0,0,0,0,0,0,0,-0.5943,-0.5945,-0.601,-0.601,-0.601,-0.6025,-0.6025,-0.6026,-0.5981,-0.5979,-0.5977,-0.5976,-0.5994,-0.5996,-0.5998,0,0,0,0,0,0,0,0,0,0,0,0,0,-0.5967,-0.5945,-0.601,-0.5989,-0.5988,-0.6025,-0.6025,-0.6026,-0.5981,-0.5979,-0.5977,-0.5975,-0.5993,-0.5996,-0.5999,-0.6057,0,0,-0.6007,-0.6008,0,0,0,0,0,0,0,0,-0.5966,-0.5969,-0.5992,-0.5991,-0.5989,-0.5999,-0.6009,-0.6036,-0.5981,-0.5984,-0.5976,-0.5974,-0.5998,-0.6,-0.6008,-0.6058,-0.6059,-0.6007,-0.6009,-0.601,-0.6011,0,0,0,0,0,0,0,-0.5964,-0.5968,-0.6016,-0.5993,-0.5991,-0.598,-0.5981,-0.6014,-0.6002,-0.5983,-0.598,-0.5982,-0.5997,-0.6005,-0.6008,-0.6059,-0.6007,-0.6009,-0.6011,-0.6012,-0.6159,-0.6161,0,0,0,0,0,0,-0.5965,-0.5967,-0.6015,-0.6016,-0.5972,-0.5983,-0.5984,-0.5998,-0.6002,-0.6,-0.5984,-0.598,-0.6002,-0.6005,-0.6008,-0.6077,-0.601,-0.6012,-0.6014,-0.6156,-0.6159,-0.6162,0,0,0,0,0,0,-0.5963,-0.5969,-0.6015,-0.5991,-0.5996,-0.5986,-0.6002,-0.5999,-0.6008,-0.6002,-0.6,-0.5995,-0.6,-0.6004,-0.6045,-0.6077,-0.6014,-0.6016,-0.6154,-0.6157,-0.616,-0.6216,0,0,0,0,0,0,-0.5962,-0.5969,-0.5991,-0.5992,-0.5997,-0.6051,-0.6004,-0.6001,-0.6012,-0.6007,-0.6012,-0.6011,-0.5999,-0.6041,-0.6048,-0.608,-0.6018,-0.6151,-0.6155,-0.6159,-0.6212,-0.6221,-0.6229,0,0,0,0,0,-0.5959,-0.6007,-0.5992,-0.5998,-0.6024,-0.6053,-0.6056,-0.6041,-0.6015,-0.6037,-0.6034,-0.6011,-0.6073,-0.6046,-0.6053,-0.6086,-0.6149,-0.6154,-0.6159,-0.6208,-0.6219,-0.6229,0,0,0,0,0,0,-0.6011,-0.6006,-0.599,-0.6039,-0.6047,-0.6045,-0.6073,-0.6054,-0.607,-0.6064,-0.6045,-0.6047,-0.6091,-0.6093,-0.6063,-0.6143,-0.6106,-0.6113,-0.6141,-0.6152,-0.6161,-0.616,-0.602,0,0,0,0,0,-0.6028,-0.6051,-0.6046,-0.6089,-0.6094,-0.6083,-0.6095,-0.6082,-0.6089,-0.6093,-0.6092,-0.6101,-0.6122,-0.6137,-0.6157,-0.6211,-0.6212,-0.6237,-0.6246,-0.6254,-0.626,-0.629,-0.6301,-0.6178,-0.6178,-0.6178,0,0,-0.6063,-0.6063,-0.6079,-0.61,-0.6104,-0.6129,-0.6086,-0.6114,-0.6133,-0.6097,-0.6136,-0.6136,-0.6144,-0.6192,-0.6213,-0.6195,-0.6294,-0.626,-0.6266,-0.6269,-0.6296,-0.6308,-0.6318,-0.6182,-0.6181,-0.6181,0,0,-0.6141,-0.6143,-0.6179,-0.6184,-0.6191,-0.6183,-0.6192,-0.6194,-0.6192,-0.623,-0.6204,-0.6226,-0.6263,-0.627,-0.6279,-0.6358,-0.6338,-0.6365,-0.6412,-0.6441,-0.6451,-0.6459,-0.6489,-0.6499,-0.6371,-0.6371,-0.6372,0,-0.6184,-0.622,-0.6201,-0.6231,-0.6241,-0.6208,-0.6246,-0.6252,-0.6265,-0.6273,-0.6252,-0.6297,-0.6301,-0.635,-0.637,-0.6377,-0.6387,-0.6365,-0.6451,-0.6459,-0.6467,-0.6495,-0.6505,-0.6375,-0.6374,-0.6374,-0.6374,0,-0.6274,-0.6299,-0.6328,-0.634,-0.6353,-0.6387,-0.6373,-0.6389,-0.6375,-0.6369,-0.6409,-0.6411,-0.6431,-0.6441,-0.6428,-0.6489,-0.6478,-0.6454,-0.6417,-0.6482,-0.6508,-0.6518,-0.6379,-0.6378,-0.6377,-0.6376,0,0,-0.6385,-0.6386,-0.6397,-0.6402,-0.6407,-0.6427,-0.6459,-0.6477,-0.6491,-0.6501,-0.6528,-0.656,-0.6538,-0.6547,-0.6535,-0.656,-0.6623,-0.6533,-0.6533,-0.6551,-0.6692,-0.671,-0.6723,-0.6609,-0.6611,-0.6613,-0.6691,0,-0.6462,-0.6517,-0.65,-0.6555,-0.6579,-0.6548,-0.6576,-0.6582,-0.6578,-0.6598,-0.6593,-0.6616,-0.6585,-0.659,-0.6614,-0.6611,-0.6652,-0.6605,-0.6636,-0.6637,-0.6636,-0.6736,-0.6756,-0.683,-0.6701,-0.6703,-0.6704,0,-0.656,-0.6572,-0.663,-0.663,-0.6639,-0.6665,-0.668,-0.6699,-0.6706,-0.6701,-0.6711,-0.6693,-0.6726,-0.6687,-0.6732,-0.67,-0.6712,-0.6712,-0.6714,-0.6718,-0.6675,-0.6743,-0.6853,-0.6864,-0.6719,-0.6718,-0.6717,0,-0.6636,-0.6668,-0.6706,-0.6712,-0.6713,-0.6732,-0.6733,-0.6738,-0.675,-0.6763,-0.6771,-0.6788,-0.6798,-0.6812,-0.6799,-0.6772,-0.6846,-0.6807,-0.6844,-0.6845,-0.6862,-0.6862,-0.6977,-0.6868,-0.6868,-0.6868,-0.6867,0,-0.6725,-0.6761,-0.6741,-0.6765,-0.6805,-0.6785,-0.6826,-0.6824,-0.6828,-0.6851,-0.6825,-0.6848,-0.6829,-0.6851,-0.6841,-0.688,-0.6884,-0.6882,-0.6879,-0.6885,-0.6886,-0.6893,-0.6888,-0.687,-0.687,-0.6869,-0.6869,0,-0.6818,-0.6806,-0.6845,-0.6843,-0.6843,-0.6873,-0.6871,-0.6894,-0.6887,-0.6917,-0.6923,-0.6913,-0.6936,-0.6925,-0.6949,-0.6943,-0.6993,-0.6983,-0.6991,-0.6989,-0.7027,-0.7024,-0.7152,-0.7169,-0.7048,-0.705,-0.7051,0,-0.6876,-0.6903,-0.6903,-0.6916,-0.692,-0.6941,-0.6953,-0.6935,-0.6948,-0.6957,-0.6979,-0.7,-0.7016,-0.7055,-0.7051,-0.707,-0.7061,-0.7104,-0.7063,-0.7068,-0.7062,-0.7061,-0.7064,-0.7113,-0.7114,-0.7115,-0.7116,0,-0.698,-0.6972,-0.699,-0.7005,-0.7019,-0.7031,-0.704,-0.7053,-0.7035,-0.7051,-0.7074,-0.7087,-0.7111,-0.7133,-0.7149,-0.7152,-0.7132,-0.7129,-0.7139,-0.7146,-0.7149,-0.7149,-0.7015,-0.7126,-0.7125,-0.7125,-0.7124,-0.7124,-0.7058,-0.7081,-0.7084,-0.7105,-0.7109,-0.7119,-0.7139,-0.7135,-0.7153,-0.7172,-0.716,-0.7187,-0.7193,-0.7213,-0.7218,-0.724,-0.7223,-0.7237,-0.7241,-0.7245,-0.725,-0.7145,-0.7243,-0.7242,-0.7242,-0.7242,-0.7242,0,-0.7162,-0.7162,-0.7181,-0.7194,-0.721,-0.7188,-0.7197,-0.7212,-0.7237,-0.7243,-0.7259,-0.7286,-0.7307,-0.7304,-0.7323,-0.7341,-0.7332,-0.7347,-0.7346,-0.7347,-0.7264,-0.7254,-0.7354,-0.7354,-0.7354,-0.7354,-0.7353,-0.7353,-0.7218,-0.7255,-0.7248,-0.7288,-0.7288,-0.7314,-0.7321,-0.733,-0.7335,-0.7366,-0.7383,-0.738,-0.7383,-0.7402,-0.742,-0.7418,-0.7427,-0.7446,-0.7441,-0.7364,-0.7353,-0.7342,-0.7333,-0.7447,-0.7447,-0.7522,-0.7523,-0.7523]},{"header":{"parameterUnit":"m.s-1","parameterCategory":1,"la1":30.2991,"la2":30.254,"lo1":-89.0895,"lo2":-89.0444,"dy":0.0017,"dx":0.0017,"nx":28,"ny":28,"refTime":"2026-01-05T09:00:00:Z","depth":0,"parameterNumber":3,"parameterNumberName":"V-component_of_WINDS"},"data":[0,0,0,0,0,0,0,0,0,0,0,0,0,0,0,0,0,0,0,0,0,0,0,0,0,0,0,0,0,0,0,0,0,0,0,0,0,0,0,0,0,0,0,0,0,0,0,0,0,0,0,0,0,0,0,0,0,0,-0.9429,-0.9429,0,-0.9439,-0.944,-0.944,-0.9433,-0.9433,-0.9432,-0.9432,-0.9443,-0.9444,-0.9445,0,0,0,0,0,0,0,0,0,0,0,0,0,-0.9402,-0.9403,-0.9429,-0.9429,-0.9429,-0.9439,-0.944,-0.944,-0.9433,-0.9433,-0.9432,-0.9432,-0.9443,-0.9444,-0.9445,0,0,0,0,0,0,0,0,0,0,0,0,0,-0.9413,-0.9403,-0.9429,-0.9427,-0.9427,-0.9439,-0.944,-0.944,-0.9433,-0.9433,-0.9432,-0.9432,-0.9443,-0.9444,-0.9445,-0.946,0,0,-0.9447,-0.9448,0,0,0,0,0,0,0,0,-0.9413,-0.9414,-0.9427,-0.9427,-0.9427,-0.9434,-0.9434,-0.9446,-0.9433,-0.9431,-0.9432,-0.9431,-0.9441,-0.9442,-0.9445,-0.946,-0.9461,-0.9447,-0.9448,-0.9448,-0.9449,0,0,0,0,0,0,0,-0.9412,-0.9414,-0.9433,-0.9427,-0.9427,-0.9425,-0.9426,-0.9437,-0.9438,-0.9431,-0.943,-0.9432,-0.9441,-0.9444,-0.9445,-0.9461,-0.9447,-0.9448,-0.9449,-0.9449,-0.9489,-0.9489,0,0,0,0,0,0,-0.9411,-0.9413,-0.9433,-0.9433,-0.9418,-0.9426,-0.9427,-0.9432,-0.9438,-0.9439,-0.9432,-0.9431,-0.9443,-0.9444,-0.9445,-0.9463,-0.9448,-0.9449,-0.945,-0.9488,-0.9489,-0.9489,0,0,0,0,0,0,-0.9411,-0.9413,-0.9432,-0.9423,-0.9425,-0.9427,-0.9433,-0.9433,-0.9436,-0.9439,-0.9439,-0.9435,-0.9442,-0.9444,-0.9456,-0.9464,-0.945,-0.945,-0.9488,-0.9488,-0.9489,-0.9499,0,0,0,0,0,0,-0.941,-0.9413,-0.9419,-0.9423,-0.9426,-0.9443,-0.9433,-0.9433,-0.9438,-0.9437,-0.9442,-0.9443,-0.9442,-0.9455,-0.9457,-0.9465,-0.9451,-0.9487,-0.9488,-0.9489,-0.9498,-0.95,-0.9502,0,0,0,0,0,-0.9409,-0.9421,-0.9419,-0.9421,-0.9433,-0.9443,-0.9445,-0.9444,-0.9438,-0.9444,-0.9446,-0.9442,-0.9462,-0.9456,-0.9459,-0.9467,-0.9487,-0.9488,-0.9489,-0.9498,-0.95,-0.9502,0,0,0,0,0,0,-0.9418,-0.9422,-0.9419,-0.9434,-0.9438,-0.9442,-0.9449,-0.9447,-0.9453,-0.9452,-0.9451,-0.9452,-0.9464,-0.9466,-0.9459,-0.9481,-0.9474,-0.9475,-0.9479,-0.9482,-0.9484,-0.9483,-0.9452,0,0,0,0,0,-0.9421,-0.9429,-0.9432,-0.9444,-0.9447,-0.9448,-0.9452,-0.9451,-0.9456,-0.9457,-0.946,-0.9465,-0.9472,-0.9477,-0.9484,-0.9498,-0.9499,-0.9505,-0.9507,-0.9508,-0.951,-0.9518,-0.952,-0.9493,-0.9493,-0.9493,0,0,-0.9429,-0.9432,-0.9437,-0.9446,-0.945,-0.9458,-0.9449,-0.9458,-0.9464,-0.9459,-0.947,-0.9472,-0.9477,-0.9491,-0.9497,-0.9493,-0.9518,-0.951,-0.9511,-0.9512,-0.9519,-0.9522,-0.9524,-0.9494,-0.9494,-0.9494,0,0,-0.9447,-0.945,-0.946,-0.9464,-0.9469,-0.9469,-0.9472,-0.9476,-0.9477,-0.9488,-0.9484,-0.9491,-0.9504,-0.9508,-0.9511,-0.953,-0.9527,-0.9532,-0.9542,-0.9549,-0.9551,-0.9553,-0.956,-0.9562,-0.9533,-0.9533,-0.9533,0,-0.9456,-0.9468,-0.9466,-0.9475,-0.9479,-0.9474,-0.9485,-0.9488,-0.9495,-0.9498,-0.9494,-0.9509,-0.9512,-0.9526,-0.9531,-0.9534,-0.9536,-0.9532,-0.9551,-0.9553,-0.9555,-0.9561,-0.9564,-0.9534,-0.9534,-0.9534,-0.9534,0,-0.9478,-0.9486,-0.9494,-0.9501,-0.9506,-0.9515,-0.9515,-0.952,-0.9519,-0.9519,-0.9531,-0.9534,-0.9541,-0.9545,-0.9543,-0.9558,-0.9556,-0.9551,-0.9544,-0.9558,-0.9564,-0.9566,-0.9535,-0.9535,-0.9535,-0.9534,0,0,-0.9503,-0.9508,-0.9511,-0.9514,-0.9518,-0.9525,-0.9534,-0.9541,-0.9545,-0.955,-0.9558,-0.9568,-0.9564,-0.9568,-0.9567,-0.9573,-0.9588,-0.9568,-0.9568,-0.9572,-0.9604,-0.9608,-0.9611,-0.9585,-0.9586,-0.9586,-0.9604,0,-0.9521,-0.9537,-0.9536,-0.9551,-0.9559,-0.9554,-0.9562,-0.9565,-0.9566,-0.9573,-0.9574,-0.9581,-0.9575,-0.9577,-0.9583,-0.9585,-0.9594,-0.9583,-0.9593,-0.9593,-0.9592,-0.9614,-0.9618,-0.9634,-0.9606,-0.9607,-0.9607,0,-0.9545,-0.955,-0.9566,-0.9569,-0.9572,-0.958,-0.9586,-0.9592,-0.9596,-0.9596,-0.96,-0.9598,-0.9607,-0.9599,-0.9611,-0.9604,-0.9607,-0.9608,-0.9609,-0.961,-0.9601,-0.9616,-0.964,-0.9642,-0.9611,-0.961,-0.961,0,-0.9561,-0.9572,-0.9583,-0.9586,-0.959,-0.9595,-0.9597,-0.96,-0.9605,-0.961,-0.9612,-0.9619,-0.9622,-0.9627,-0.9626,-0.962,-0.9639,-0.9631,-0.9639,-0.9639,-0.9644,-0.9644,-0.9669,-0.9646,-0.9646,-0.9645,-0.9645,0,-0.9582,-0.9592,-0.9591,-0.9597,-0.9608,-0.9606,-0.9617,-0.9618,-0.9621,-0.9628,-0.9624,-0.9631,-0.9629,-0.9636,-0.9635,-0.9645,-0.9647,-0.9647,-0.9647,-0.9648,-0.9648,-0.9651,-0.965,-0.9646,-0.9646,-0.9646,-0.9646,0,-0.9602,-0.9602,-0.9613,-0.9616,-0.9617,-0.9625,-0.9627,-0.9633,-0.9634,-0.9642,-0.9644,-0.9645,-0.9652,-0.9651,-0.966,-0.9659,-0.9672,-0.967,-0.9671,-0.9671,-0.9679,-0.9679,-0.9708,-0.9711,-0.9685,-0.9685,-0.9686,0,-0.9616,-0.9623,-0.9627,-0.9631,-0.9633,-0.964,-0.9644,-0.9642,-0.9646,-0.9651,-0.9657,-0.9664,-0.9669,-0.9681,-0.9682,-0.9688,-0.9687,-0.9696,-0.9688,-0.9688,-0.9687,-0.9687,-0.9687,-0.9698,-0.9699,-0.9699,-0.9699,0,-0.964,-0.9639,-0.9645,-0.9651,-0.9655,-0.966,-0.9664,-0.9668,-0.9666,-0.9671,-0.9679,-0.9683,-0.9691,-0.9698,-0.9703,-0.9705,-0.9702,-0.9702,-0.9704,-0.9705,-0.9705,-0.9705,-0.9676,-0.9701,-0.9701,-0.9701,-0.9701,-0.9701,-0.9657,-0.9663,-0.9667,-0.9673,-0.9676,-0.968,-0.9686,-0.9687,-0.9693,-0.9699,-0.9697,-0.9706,-0.9709,-0.9716,-0.9719,-0.9725,-0.9721,-0.9725,-0.9726,-0.9727,-0.9728,-0.9704,-0.9726,-0.9726,-0.9726,-0.9726,-0.9726,0,-0.9681,-0.9683,-0.9689,-0.9694,-0.97,-0.9695,-0.97,-0.9704,-0.9712,-0.9715,-0.972,-0.9728,-0.9735,-0.9736,-0.9742,-0.9747,-0.9745,-0.9748,-0.9748,-0.9749,-0.9731,-0.9728,-0.9749,-0.9749,-0.9749,-0.9749,-0.9749,-0.9749,-0.9694,-0.9705,-0.9704,-0.9716,-0.9717,-0.9725,-0.9728,-0.9731,-0.9734,-0.9743,-0.9748,-0.9749,-0.9751,-0.9758,-0.9763,-0.9763,-0.9766,-0.977,-0.9769,-0.9752,-0.975,-0.9748,-0.9745,-0.977,-0.977,-0.9787,-0.9787,-0.9787]}]]